Orbital Elements at Epoch 2459200.5 (2020-Dec-17.0) TDB
Reference: JPL 15 (heliocentric ecliptic J2000)
Element | Value | Uncertainty (1-sigma) | Units |
e | .2761375346031955 | 4.8026e-08 | |
a | 2.206705437414312 | 1.057e-08 | au |
q | 1.597351238331258 | 1.0306e-07 | au |
i | 6.950529895387212 | 4.5746e-06 | deg |
node | 94.3130788828844 | 4.7764e-05 | deg |
peri | 214.6576910965826 | 4.919e-05 | deg |
M | 252.0011622417831 | 1.5565e-05 | deg |
tp | 2459559.696052829736 (2021-Dec-11.19605283) | 5.3752e-05 | TDB |
period | 1197.333061196453 3.28 | 8.603e-06 2.355e-08 | d yr |
n | .3006682197852824 | 2.1603e-09 | deg/d |
Q | 2.816059636497366 | 1.3489e-08 | au |
|
| | Orbit Determination Parameters
Additional Information
|